Regional Weather Roundup
Issued by NWS Cleveland, OH

Home | Current Version | Previous Version | Graphics & Text | Print | Product List | Glossary On
Versions: 1 2 3 4 5 6 7 8 9 10 11 12 13 14 15 16 17 18 19 20 21 22 23 24 25 26 27 28 29 30 31 32 33 34 35 36 37 38 39 40 41 42 43 44 45 46 47 48 49 50
000
ASUS41 KCLE 012100
RWRCLE
OHIO REGIONAL WEATHER ROUNDUP
NATIONAL WEATHER SERVICE WILMINGTON, OH
500 PM EDT WED APR 01 2015

NOTE: "FAIR" INDICATES FEW OR NO CLOUDS BELOW 12,000 FEET WITH NO
SIGNIFICANT WEATHER AND/OR OBSTRUCTIONS TO VISIBILITY.

OHZ001>008-015>018-024>027-034-035-043-044-012200-
   NORTHWEST OHIO

CITY           SKY/WX    TMP DP  RH WIND       PRES   REMARKS
DEFIANCE       SUNNY     66  35  31 SW8       30.04F
FINDLAY        SUNNY     65  33  30 SW6       30.05F
TOLEDO EXPRESS SUNNY     65  33  30 W8        30.04F
TOLEDO EXEC    SUNNY     64  35  34 N3        30.05F
LIMA           SUNNY     66  33  29 S6        30.05F
$$

OHZ009>014-019>023-028>033-038-089-012200-
   NORTHEAST OHIO

CITY           SKY/WX    TMP DP  RH WIND       PRES   REMARKS
CLE-HOPKINS    MOSUNNY   59  35  40 W6        30.11F
CLE-LAKEFRONT  SUNNY     46  32  58 NE9       30.10F
CUY CO. ARPT     N/A     57  36  44 NW7       30.11F
LORAIN-ELYRIA  MOSUNNY   59  36  42 W12       30.08F
ASHTABULA      MOSUNNY   52  34  50 SW8       30.11F
AKRON-CANTON   MOSUNNY   60  33  36 NW12      30.11F
WOOSTER        NOT AVBL
MANSFIELD      SUNNY     60  34  37 W7        30.09F
YOUNGSTOWN     MOSUNNY   55  31  39 W8        30.11F
$$

OHZ042-051>053-060>062-070>072-077>081-012200-
  SOUTHWEST OHIO

CITY           SKY/WX    TMP DP  RH WIND       PRES   REMARKS
CINC-COVINGTON MOSUNNY   66  30  26 SE6       30.09F
CINC-LUNKEN    SUNNY     66  30  26 VRB6      30.09F
HAMILTON       SUNNY     68  31  25 VRB7      30.09F
DAYTON         NOT AVBL
WRIGHT-PAT AFB SUNNY     65  29  25 VRB5      30.07F
DAYTON GENERAL SUNNY     64  30  27 VRB7      30.07F
WILMINGTON     SUNNY     63  28  26 S3        30.09F
$$

OHZ036-037-039>041-045>050-054>059-063>069-073>076-082>088-012200-
  CENTRAL AND SOUTHEAST OHIO

CITY           SKY/WX    TMP DP  RH WIND       PRES   REMARKS
COLUMBUS       SUNNY     61  34  36 S6        30.09F
OSU AIRPORT    SUNNY     63  31  30 E3        30.08F
BOLTON FIELD   NOT AVBL
RICKENBACK AFB NOT AVBL
NEWARK         SUNNY     62  34  35 SW5       30.10F
MARION         SUNNY     63  31  30 VRB7      30.08F
LANCASTER      SUNNY     62  32  32 CALM      30.11F
ZANESVILLE     SUNNY     59  31  34 W6        30.12F
NEW PHILLY     MOSUNNY   61  32  33 MISG      30.12F
$$



USA.gov is the U.S. government's official web portal to all federal, state and local government web resources and services.